Year,Month,Day,Hour,Minute,Value (Times are PST for temperature in C)
2015,07,02,00,00,23.10
2015,07,02,00,01,23.10
2015,07,02,00,02,23.00
2015,07,02,00,03,23.00
2015,07,02,00,04,23.00
2015,07,02,00,05,22.90
2015,07,02,00,06,22.90
2015,07,02,00,07,22.90
2015,07,02,00,08,22.90
2015,07,02,00,09,22.80
2015,07,02,00,10,22.80
2015,07,02,00,11,22.80
2015,07,02,00,12,22.70
2015,07,02,00,13,22.70
2015,07,02,00,14,22.70
2015,07,02,00,15,22.70
2015,07,02,00,16,22.60
2015,07,02,00,17,22.60
2015,07,02,00,18,22.60
2015,07,02,00,19,22.60
2015,07,02,00,20,22.60
2015,07,02,00,21,22.70
2015,07,02,00,22,22.70
2015,07,02,00,23,22.70
2015,07,02,00,24,22.70
2015,07,02,00,25,22.70
2015,07,02,00,26,22.70
2015,07,02,00,27,22.60
2015,07,02,00,28,22.60
2015,07,02,00,29,22.60
2015,07,02,00,30,22.60
2015,07,02,00,31,22.60
2015,07,02,00,32,22.60
2015,07,02,00,33,22.50
2015,07,02,00,34,22.50
2015,07,02,00,35,22.50
2015,07,02,00,36,22.40
2015,07,02,00,37,22.40
2015,07,02,00,38,22.40
2015,07,02,00,39,22.40
2015,07,02,00,40,22.30
2015,07,02,00,41,22.30
2015,07,02,00,42,22.30
2015,07,02,00,43,22.30
2015,07,02,00,44,22.20
2015,07,02,00,45,22.20
2015,07,02,00,46,22.20
2015,07,02,00,47,22.20
2015,07,02,00,48,22.10
2015,07,02,00,49,22.10
2015,07,02,00,50,22.10
2015,07,02,00,51,22.00
2015,07,02,00,52,22.00
2015,07,02,00,53,22.00
2015,07,02,00,54,21.90
2015,07,02,00,55,21.90
2015,07,02,00,56,21.80
2015,07,02,00,57,21.80
2015,07,02,00,58,21.80
2015,07,02,00,59,21.80
2015,07,02,01,00,21.80
2015,07,02,01,01,21.80
2015,07,02,01,02,21.70
2015,07,02,01,03,21.70
2015,07,02,01,04,21.70
2015,07,02,01,05,21.70
2015,07,02,01,06,21.60
2015,07,02,01,07,21.60
2015,07,02,01,08,21.60
2015,07,02,01,09,21.60
2015,07,02,01,10,21.50
2015,07,02,01,11,21.50
2015,07,02,01,12,21.40
2015,07,02,01,13,21.40
2015,07,02,01,14,21.40
2015,07,02,01,15,21.40
2015,07,02,01,16,21.30
2015,07,02,01,17,21.30
2015,07,02,01,18,21.30
2015,07,02,01,19,21.30
2015,07,02,01,20,21.30
2015,07,02,01,21,21.30
2015,07,02,01,22,21.30
2015,07,02,01,23,21.20
2015,07,02,01,24,21.20
2015,07,02,01,25,21.20
2015,07,02,01,26,21.20
2015,07,02,01,27,21.20
2015,07,02,01,28,21.20
2015,07,02,01,29,21.20
2015,07,02,01,30,21.20
2015,07,02,01,31,21.10
2015,07,02,01,32,21.10
2015,07,02,01,33,21.10
2015,07,02,01,34,21.10
2015,07,02,01,35,21.10
2015,07,02,01,36,21.00
2015,07,02,01,37,21.00
2015,07,02,01,38,21.00
2015,07,02,01,39,21.10
2015,07,02,01,40,21.10
2015,07,02,01,41,21.10
2015,07,02,01,42,21.20
2015,07,02,01,43,21.20
2015,07,02,01,44,21.20
2015,07,02,01,45,21.20
2015,07,02,01,46,21.30
2015,07,02,01,47,21.30
2015,07,02,01,48,21.30
2015,07,02,01,49,21.30
2015,07,02,01,50,21.30
2015,07,02,01,51,21.40
2015,07,02,01,52,21.40
2015,07,02,01,53,21.40
2015,07,02,01,54,21.40
2015,07,02,01,55,21.40
2015,07,02,01,56,21.40
2015,07,02,01,57,21.40
2015,07,02,01,58,21.40
2015,07,02,01,59,21.40
2015,07,02,02,00,21.40
2015,07,02,02,01,21.40
2015,07,02,02,02,21.40
2015,07,02,02,03,21.40
2015,07,02,02,04,21.40
2015,07,02,02,05,21.40
2015,07,02,02,06,21.40
2015,07,02,02,07,21.40
2015,07,02,02,08,21.40
2015,07,02,02,09,21.40
2015,07,02,02,10,21.40
2015,07,02,02,11,21.40
2015,07,02,02,12,21.40
2015,07,02,02,13,21.40
2015,07,02,02,14,21.40
2015,07,02,02,15,21.40
2015,07,02,02,16,21.40
2015,07,02,02,17,21.40
2015,07,02,02,18,21.50
2015,07,02,02,19,21.60
2015,07,02,02,20,21.60
2015,07,02,02,21,21.60
2015,07,02,02,22,21.60
2015,07,02,02,23,21.70
2015,07,02,02,24,21.70
2015,07,02,02,25,21.70
2015,07,02,02,26,21.70
2015,07,02,02,27,21.70
2015,07,02,02,28,21.70
2015,07,02,02,29,21.70
2015,07,02,02,30,21.70
2015,07,02,02,31,21.70
2015,07,02,02,32,21.60
2015,07,02,02,33,21.60
2015,07,02,02,34,21.50
2015,07,02,02,35,21.50
2015,07,02,02,36,21.40
2015,07,02,02,37,21.40
2015,07,02,02,38,21.30
2015,07,02,02,39,21.30
2015,07,02,02,40,21.20
2015,07,02,02,41,21.20
2015,07,02,02,42,21.20
2015,07,02,02,43,21.10
2015,07,02,02,44,21.10
2015,07,02,02,45,21.20
2015,07,02,02,46,21.20
2015,07,02,02,47,21.20
2015,07,02,02,48,21.20
2015,07,02,02,49,21.20
2015,07,02,02,50,21.20
2015,07,02,02,51,21.20
2015,07,02,02,52,21.20
2015,07,02,02,53,21.20
2015,07,02,02,54,21.10
2015,07,02,02,55,21.10
2015,07,02,02,56,21.10
2015,07,02,02,57,21.10
2015,07,02,02,58,21.00
2015,07,02,02,59,21.00
2015,07,02,03,00,21.00
2015,07,02,03,01,20.90
2015,07,02,03,02,20.90
2015,07,02,03,03,20.90
2015,07,02,03,04,20.90
2015,07,02,03,05,20.80
2015,07,02,03,06,20.80
2015,07,02,03,07,20.80
2015,07,02,03,08,20.70
2015,07,02,03,09,20.70
2015,07,02,03,10,20.70
2015,07,02,03,11,20.70
2015,07,02,03,12,20.70
2015,07,02,03,13,20.60
2015,07,02,03,14,20.60
2015,07,02,03,15,20.60
2015,07,02,03,16,20.50
2015,07,02,03,17,20.50
2015,07,02,03,18,20.50
2015,07,02,03,19,20.40
2015,07,02,03,20,20.40
2015,07,02,03,21,20.40
2015,07,02,03,22,20.40
2015,07,02,03,23,20.40
2015,07,02,03,24,20.40
2015,07,02,03,25,20.30
2015,07,02,03,26,20.30
2015,07,02,03,27,20.30
2015,07,02,03,28,20.30
2015,07,02,03,29,20.30
2015,07,02,03,30,20.20
2015,07,02,03,31,20.20
2015,07,02,03,32,20.20
2015,07,02,03,33,20.10
2015,07,02,03,34,20.10
2015,07,02,03,35,20.10
2015,07,02,03,36,20.00
2015,07,02,03,37,20.00
2015,07,02,03,38,20.00
2015,07,02,03,39,19.90
2015,07,02,03,40,19.90
2015,07,02,03,41,19.90
2015,07,02,03,42,19.90
2015,07,02,03,43,19.80
2015,07,02,03,44,19.80
2015,07,02,03,45,19.80
2015,07,02,03,46,19.80
2015,07,02,03,47,19.80
2015,07,02,03,48,19.70
2015,07,02,03,49,19.70
2015,07,02,03,50,19.70
2015,07,02,03,51,19.70
2015,07,02,03,52,19.70
2015,07,02,03,53,19.70
2015,07,02,03,54,19.70
2015,07,02,03,55,19.60
2015,07,02,03,56,19.60
2015,07,02,03,57,19.60
2015,07,02,03,58,19.60
2015,07,02,03,59,19.50
2015,07,02,04,00,19.50
2015,07,02,04,01,19.40
2015,07,02,04,02,19.40
2015,07,02,04,03,19.40
2015,07,02,04,04,19.30
2015,07,02,04,05,19.30
2015,07,02,04,06,19.30
2015,07,02,04,07,19.20
2015,07,02,04,08,19.20
2015,07,02,04,09,19.10
2015,07,02,04,10,19.10
2015,07,02,04,11,19.00
2015,07,02,04,12,19.00
2015,07,02,04,13,18.90
2015,07,02,04,14,18.90
2015,07,02,04,15,18.80
2015,07,02,04,16,18.80
2015,07,02,04,17,18.80
2015,07,02,04,18,18.70
2015,07,02,04,19,18.70
2015,07,02,04,20,18.60
2015,07,02,04,21,18.60
2015,07,02,04,22,18.60
2015,07,02,04,23,18.50
2015,07,02,04,24,18.50
2015,07,02,04,25,18.40
2015,07,02,04,26,18.40
2015,07,02,04,27,18.40
2015,07,02,04,28,18.30
2015,07,02,04,29,18.30
2015,07,02,04,30,18.30
2015,07,02,04,31,18.20
2015,07,02,04,32,18.20
2015,07,02,04,33,18.20
2015,07,02,04,34,18.20
2015,07,02,04,35,18.20
2015,07,02,04,36,18.20
2015,07,02,04,37,18.20
2015,07,02,04,38,18.20
2015,07,02,04,39,18.10
2015,07,02,04,40,18.10
2015,07,02,04,41,18.10
2015,07,02,04,42,18.10
2015,07,02,04,43,18.10
2015,07,02,04,44,18.10
2015,07,02,04,45,18.00
2015,07,02,04,46,18.00
2015,07,02,04,47,18.00
2015,07,02,04,48,17.90
2015,07,02,04,49,17.90
2015,07,02,04,50,17.90
2015,07,02,04,51,17.90
2015,07,02,04,52,17.80
2015,07,02,04,53,17.80
2015,07,02,04,54,17.80
2015,07,02,04,55,17.80
2015,07,02,04,56,17.80
2015,07,02,04,57,17.70
2015,07,02,04,58,17.70
2015,07,02,04,59,17.70
2015,07,02,05,00,17.70
2015,07,02,05,01,17.70
2015,07,02,05,02,17.70
2015,07,02,05,03,17.60
2015,07,02,05,04,17.60
2015,07,02,05,05,17.60
2015,07,02,05,06,17.60
2015,07,02,05,07,17.60
2015,07,02,05,08,17.60
2015,07,02,05,09,17.50
2015,07,02,05,10,17.50
2015,07,02,05,11,17.50
2015,07,02,05,12,17.40
2015,07,02,05,13,17.40
2015,07,02,05,14,17.40
2015,07,02,05,15,17.40
2015,07,02,05,16,17.40
2015,07,02,05,17,17.40
2015,07,02,05,18,17.40
2015,07,02,05,19,17.40
2015,07,02,05,20,17.30
2015,07,02,05,21,17.30
2015,07,02,05,22,17.30
2015,07,02,05,23,17.30
2015,07,02,05,24,17.30
2015,07,02,05,25,17.30
2015,07,02,05,26,17.20
2015,07,02,05,27,17.20
2015,07,02,05,28,17.20
2015,07,02,05,29,17.20
2015,07,02,05,30,17.20
2015,07,02,05,31,17.20
2015,07,02,05,32,17.10
2015,07,02,05,33,17.10
2015,07,02,05,34,17.10
2015,07,02,05,35,17.10
2015,07,02,05,36,17.10
2015,07,02,05,37,17.00
2015,07,02,05,38,17.00
2015,07,02,05,39,17.00
2015,07,02,05,40,16.90
2015,07,02,05,41,16.90
2015,07,02,05,42,16.90
2015,07,02,05,43,16.90
2015,07,02,05,44,16.90
2015,07,02,05,45,16.90
2015,07,02,05,46,16.90
2015,07,02,05,47,16.90
2015,07,02,05,48,16.90
2015,07,02,05,49,16.90
2015,07,02,05,50,16.90
2015,07,02,05,51,16.90
2015,07,02,05,52,16.90
2015,07,02,05,53,16.90
2015,07,02,05,54,16.90
2015,07,02,05,55,16.90
2015,07,02,05,56,16.90
2015,07,02,05,57,16.90
2015,07,02,05,58,16.90
2015,07,02,05,59,16.90
2015,07,02,06,00,16.90
2015,07,02,06,01,16.90
2015,07,02,06,02,16.90
2015,07,02,06,03,16.90
2015,07,02,06,04,16.90
2015,07,02,06,05,16.90
2015,07,02,06,06,16.90
2015,07,02,06,07,16.90
2015,07,02,06,08,16.90
2015,07,02,06,09,17.00
2015,07,02,06,10,17.00
2015,07,02,06,11,17.00
2015,07,02,06,12,17.10
2015,07,02,06,13,17.10
2015,07,02,06,14,17.10
2015,07,02,06,15,17.10
2015,07,02,06,16,17.10
2015,07,02,06,17,17.10
2015,07,02,06,18,17.20
2015,07,02,06,19,17.20
2015,07,02,06,20,17.20
2015,07,02,06,21,17.20
2015,07,02,06,22,17.20
2015,07,02,06,23,17.20
2015,07,02,06,24,17.20
2015,07,02,06,25,17.30
2015,07,02,06,26,17.30
2015,07,02,06,27,17.30
2015,07,02,06,28,17.40
2015,07,02,06,29,17.40
2015,07,02,06,30,17.40
2015,07,02,06,31,17.50
2015,07,02,06,32,17.50
2015,07,02,06,33,17.60
2015,07,02,06,34,17.60
2015,07,02,06,35,17.60
2015,07,02,06,36,17.70
2015,07,02,06,37,17.70
2015,07,02,06,38,17.70
2015,07,02,06,39,17.70
2015,07,02,06,40,17.80
2015,07,02,06,41,17.80
2015,07,02,06,42,17.80
2015,07,02,06,43,17.80
2015,07,02,06,44,17.80
2015,07,02,06,45,17.80
2015,07,02,06,46,17.90
2015,07,02,06,47,17.90
2015,07,02,06,48,17.90
2015,07,02,06,49,17.90
2015,07,02,06,50,18.00
2015,07,02,06,51,18.00
2015,07,02,06,52,18.00
2015,07,02,06,53,18.10
2015,07,02,06,54,18.10
2015,07,02,06,55,18.10
2015,07,02,06,56,18.20
2015,07,02,06,57,18.20
2015,07,02,06,58,18.20
2015,07,02,06,59,18.30
2015,07,02,07,00,18.30
2015,07,02,07,01,18.30
2015,07,02,07,02,18.30
2015,07,02,07,03,18.30
2015,07,02,07,04,18.40
2015,07,02,07,05,18.40
2015,07,02,07,06,18.50
2015,07,02,07,07,18.50
2015,07,02,07,08,18.60
2015,07,02,07,09,18.60
2015,07,02,07,10,18.60
2015,07,02,07,11,18.60
2015,07,02,07,12,18.70
2015,07,02,07,13,18.70
2015,07,02,07,14,18.70
2015,07,02,07,15,18.70
2015,07,02,07,16,18.80
2015,07,02,07,17,18.80
2015,07,02,07,18,18.80
2015,07,02,07,19,18.80
2015,07,02,07,20,18.80
2015,07,02,07,21,18.80
2015,07,02,07,22,18.80
2015,07,02,07,23,18.90
2015,07,02,07,24,18.90
2015,07,02,07,25,18.90
2015,07,02,07,26,18.90
2015,07,02,07,27,18.90
2015,07,02,07,28,18.90
2015,07,02,07,29,18.90
2015,07,02,07,30,18.90
2015,07,02,07,31,18.90
2015,07,02,07,32,19.00
2015,07,02,07,33,19.00
2015,07,02,07,34,19.10
2015,07,02,07,35,19.10
2015,07,02,07,36,19.10
2015,07,02,07,37,19.10
2015,07,02,07,38,19.20
2015,07,02,07,39,19.20
2015,07,02,07,40,19.30
2015,07,02,07,41,19.30
2015,07,02,07,42,19.40
2015,07,02,07,43,19.40
2015,07,02,07,44,19.50
2015,07,02,07,45,19.50
2015,07,02,07,46,19.60
2015,07,02,07,47,19.60
2015,07,02,07,48,19.60
2015,07,02,07,49,19.60
2015,07,02,07,50,19.60
2015,07,02,07,51,19.60
2015,07,02,07,52,19.60
2015,07,02,07,53,19.60
2015,07,02,07,54,19.60
2015,07,02,07,55,19.60
2015,07,02,07,56,19.60
2015,07,02,07,57,19.60
2015,07,02,07,58,19.70
2015,07,02,07,59,19.70
2015,07,02,08,00,19.70
2015,07,02,08,01,19.70
2015,07,02,08,02,19.70
2015,07,02,08,03,19.70
2015,07,02,08,04,19.70
2015,07,02,08,05,19.70
2015,07,02,08,06,19.70
2015,07,02,08,07,19.60
2015,07,02,08,08,19.60
2015,07,02,08,09,19.60
2015,07,02,08,10,19.60
2015,07,02,08,11,19.60
2015,07,02,08,12,19.60
2015,07,02,08,13,19.60
2015,07,02,08,14,19.60
2015,07,02,08,15,19.60
2015,07,02,08,16,19.60
2015,07,02,08,17,19.60
2015,07,02,08,18,19.60
2015,07,02,08,19,19.60
2015,07,02,08,20,19.60
2015,07,02,08,21,19.60
2015,07,02,08,22,19.60
2015,07,02,08,23,19.70
2015,07,02,08,24,19.70
2015,07,02,08,25,19.80
2015,07,02,08,26,19.90
2015,07,02,08,27,20.00
2015,07,02,08,28,20.10
2015,07,02,08,29,20.20
2015,07,02,08,30,20.20
2015,07,02,08,31,20.20
2015,07,02,08,32,20.10
2015,07,02,08,33,20.10
2015,07,02,08,34,20.10
2015,07,02,08,35,20.10
2015,07,02,08,36,20.20
2015,07,02,08,37,20.20
2015,07,02,08,38,20.20
2015,07,02,08,39,20.30
2015,07,02,08,40,20.30
2015,07,02,08,41,20.40
2015,07,02,08,42,20.50
2015,07,02,08,43,20.50
2015,07,02,08,44,20.60
2015,07,02,08,45,20.70
2015,07,02,08,46,20.70
2015,07,02,08,47,20.80
2015,07,02,08,48,20.90
2015,07,02,08,49,20.90
2015,07,02,08,50,20.90
2015,07,02,08,51,20.90
2015,07,02,08,52,21.00
2015,07,02,08,53,21.00
2015,07,02,08,54,21.00
2015,07,02,08,55,21.00
2015,07,02,08,56,21.00
2015,07,02,08,57,20.90
2015,07,02,08,58,20.90
2015,07,02,08,59,20.90
2015,07,02,09,00,20.80
2015,07,02,09,01,20.80
2015,07,02,09,02,20.80
2015,07,02,09,03,20.80
2015,07,02,09,04,20.90
2015,07,02,09,05,20.90
2015,07,02,09,06,20.90
2015,07,02,09,07,20.90
2015,07,02,09,08,20.90
2015,07,02,09,09,21.00
2015,07,02,09,10,21.00
2015,07,02,09,11,21.00
2015,07,02,09,12,21.00
2015,07,02,09,13,21.00
2015,07,02,09,14,21.00
2015,07,02,09,15,21.10
2015,07,02,09,16,21.10
2015,07,02,09,17,21.10
2015,07,02,09,18,21.10
2015,07,02,09,19,21.20
2015,07,02,09,20,21.20
2015,07,02,09,21,21.20
2015,07,02,09,22,21.20
2015,07,02,09,23,21.20
2015,07,02,09,24,21.20
2015,07,02,09,25,21.20
2015,07,02,09,26,21.10
2015,07,02,09,27,21.10
2015,07,02,09,28,21.10
2015,07,02,09,29,21.10
2015,07,02,09,30,21.00
2015,07,02,09,31,21.00
2015,07,02,09,32,21.10
2015,07,02,09,33,21.10
2015,07,02,09,34,21.20
2015,07,02,09,35,21.30
2015,07,02,09,36,21.40
2015,07,02,09,37,21.40
2015,07,02,09,38,21.50
2015,07,02,09,39,21.50
2015,07,02,09,40,21.60
2015,07,02,09,41,21.50
2015,07,02,09,42,21.50
2015,07,02,09,43,21.40
2015,07,02,09,44,21.40
2015,07,02,09,45,21.40
2015,07,02,09,46,21.40
2015,07,02,09,47,21.40
2015,07,02,09,48,21.40
2015,07,02,09,49,21.40
2015,07,02,09,50,21.40
2015,07,02,09,51,21.40
2015,07,02,09,52,21.40
2015,07,02,09,53,21.40
2015,07,02,09,54,21.40
2015,07,02,09,55,21.30
2015,07,02,09,56,21.40
2015,07,02,09,57,21.50
2015,07,02,09,58,21.50
2015,07,02,09,59,21.60
2015,07,02,10,00,21.60
2015,07,02,10,01,21.60
2015,07,02,10,02,21.60
2015,07,02,10,03,21.60
2015,07,02,10,04,21.60
2015,07,02,10,05,21.60
2015,07,02,10,06,21.60
2015,07,02,10,07,21.60
2015,07,02,10,08,21.70
2015,07,02,10,09,21.80
2015,07,02,10,10,21.80
2015,07,02,10,11,21.90
2015,07,02,10,12,22.00
2015,07,02,10,13,22.10
2015,07,02,10,14,22.20
2015,07,02,10,15,22.20
2015,07,02,10,16,22.20
2015,07,02,10,17,22.10
2015,07,02,10,18,22.10
2015,07,02,10,19,22.10
2015,07,02,10,20,22.10
2015,07,02,10,21,22.10
2015,07,02,10,22,22.00
2015,07,02,10,23,22.00
2015,07,02,10,24,21.90
2015,07,02,10,25,21.90
2015,07,02,10,26,21.90
2015,07,02,10,27,21.90
2015,07,02,10,28,21.90
2015,07,02,10,29,21.90
2015,07,02,10,30,21.90
2015,07,02,10,31,22.00
2015,07,02,10,32,22.10
2015,07,02,10,33,22.20
2015,07,02,10,34,22.30
2015,07,02,10,35,22.30
2015,07,02,10,36,22.30
2015,07,02,10,37,22.40
2015,07,02,10,38,22.40
2015,07,02,10,39,22.50
2015,07,02,10,40,22.60
2015,07,02,10,41,22.70
2015,07,02,10,42,22.70
2015,07,02,10,43,22.80
2015,07,02,10,44,22.80
2015,07,02,10,45,22.90
2015,07,02,10,46,23.00
2015,07,02,10,47,23.00
2015,07,02,10,48,22.90
2015,07,02,10,49,22.90
2015,07,02,10,50,22.90
2015,07,02,10,51,22.80
2015,07,02,10,52,22.80
2015,07,02,10,53,22.80
2015,07,02,10,54,22.80
2015,07,02,10,55,23.00
2015,07,02,10,56,23.10
2015,07,02,10,57,23.30
2015,07,02,10,58,23.50
2015,07,02,10,59,23.60
2015,07,02,11,00,23.80
2015,07,02,11,01,23.80
2015,07,02,11,02,23.80
2015,07,02,11,03,23.80
2015,07,02,11,04,23.80
2015,07,02,11,05,23.80
2015,07,02,11,06,23.80
2015,07,02,11,07,23.80
2015,07,02,11,08,23.80
2015,07,02,11,09,23.80
2015,07,02,11,10,23.70
2015,07,02,11,11,23.70
2015,07,02,11,12,23.60
2015,07,02,11,13,23.50
2015,07,02,11,14,23.50
2015,07,02,11,15,23.40
2015,07,02,11,16,23.30
2015,07,02,11,17,23.30
2015,07,02,11,18,23.40
2015,07,02,11,19,23.40
2015,07,02,11,20,23.50
2015,07,02,11,21,23.60
2015,07,02,11,22,23.70
2015,07,02,11,23,23.70
2015,07,02,11,24,23.70
2015,07,02,11,25,23.70
2015,07,02,11,26,23.80
2015,07,02,11,27,23.80
2015,07,02,11,28,23.90
2015,07,02,11,29,23.90
2015,07,02,11,30,23.90
2015,07,02,11,31,24.00
2015,07,02,11,32,24.10
2015,07,02,11,33,24.10
2015,07,02,11,34,24.10
2015,07,02,11,35,24.10
2015,07,02,11,36,24.10
2015,07,02,11,37,24.10
2015,07,02,11,38,24.20
2015,07,02,11,39,24.20
2015,07,02,11,40,24.20
2015,07,02,11,41,24.20
2015,07,02,11,42,24.30
2015,07,02,11,43,24.40
2015,07,02,11,44,24.50
2015,07,02,11,45,24.60
2015,07,02,11,46,24.70
2015,07,02,11,47,24.80
2015,07,02,11,48,24.80
2015,07,02,11,49,24.80
2015,07,02,11,50,24.70
2015,07,02,11,51,24.70
2015,07,02,11,52,24.70
2015,07,02,11,53,24.70
2015,07,02,11,54,24.70
2015,07,02,11,55,24.70
2015,07,02,11,56,24.70
2015,07,02,11,57,24.70
2015,07,02,11,58,24.70
2015,07,02,11,59,24.80
2015,07,02,12,00,24.80
2015,07,02,12,01,24.80
2015,07,02,12,02,24.80
2015,07,02,12,03,24.90
2015,07,02,12,04,24.90
2015,07,02,12,05,25.00
2015,07,02,12,06,25.00
2015,07,02,12,07,24.90
2015,07,02,12,08,24.90
2015,07,02,12,09,24.90
2015,07,02,12,10,24.90
2015,07,02,12,11,24.90
2015,07,02,12,12,25.00
2015,07,02,12,13,25.10
2015,07,02,12,14,25.10
2015,07,02,12,15,25.20
2015,07,02,12,16,25.20
2015,07,02,12,17,25.20
2015,07,02,12,18,25.30
2015,07,02,12,19,25.30
2015,07,02,12,20,25.30
2015,07,02,12,21,25.40
2015,07,02,12,22,25.40
2015,07,02,12,23,25.40
2015,07,02,12,24,25.40
2015,07,02,12,25,25.50
2015,07,02,12,26,25.50
2015,07,02,12,27,25.60
2015,07,02,12,28,25.70
2015,07,02,12,29,25.80
2015,07,02,12,30,25.90
2015,07,02,12,31,26.00
2015,07,02,12,32,26.00
2015,07,02,12,33,26.10
2015,07,02,12,34,26.10
2015,07,02,12,35,26.20
2015,07,02,12,36,26.20
2015,07,02,12,37,26.20
2015,07,02,12,38,26.10
2015,07,02,12,39,26.00
2015,07,02,12,40,26.10
2015,07,02,12,41,26.10
2015,07,02,12,42,26.10
2015,07,02,12,43,26.10
2015,07,02,12,44,26.00
2015,07,02,12,45,26.00
2015,07,02,12,46,26.00
2015,07,02,12,47,26.00
2015,07,02,12,48,26.10
2015,07,02,12,49,26.20
2015,07,02,12,50,26.30
2015,07,02,12,51,26.20
2015,07,02,12,52,26.20
2015,07,02,12,53,26.10
2015,07,02,12,54,26.10
2015,07,02,12,55,26.00
2015,07,02,12,56,25.90
2015,07,02,12,57,25.90
2015,07,02,12,58,25.90
2015,07,02,12,59,26.10
2015,07,02,13,00,26.20
2015,07,02,13,01,26.20
2015,07,02,13,02,26.30
2015,07,02,13,03,26.40
2015,07,02,13,04,26.40
2015,07,02,13,05,26.60
2015,07,02,13,06,26.70
2015,07,02,13,07,26.80
2015,07,02,13,08,26.80
2015,07,02,13,09,26.70
2015,07,02,13,10,26.70
2015,07,02,13,11,26.70
2015,07,02,13,12,26.60
2015,07,02,13,13,26.60
2015,07,02,13,14,26.60
2015,07,02,13,15,26.70
2015,07,02,13,16,26.70
2015,07,02,13,17,26.80
2015,07,02,13,18,26.80
2015,07,02,13,19,26.80
2015,07,02,13,20,26.70
2015,07,02,13,21,26.70
2015,07,02,13,22,26.70
2015,07,02,13,23,26.70
2015,07,02,13,24,26.70
2015,07,02,13,25,26.70
2015,07,02,13,26,26.70
2015,07,02,13,27,26.70
2015,07,02,13,28,26.80
2015,07,02,13,29,26.80
2015,07,02,13,30,26.80
2015,07,02,13,31,26.80
2015,07,02,13,32,26.80
2015,07,02,13,33,26.90
2015,07,02,13,34,27.00
2015,07,02,13,35,27.10
2015,07,02,13,36,27.20
2015,07,02,13,37,27.30
2015,07,02,13,38,27.30
2015,07,02,13,39,27.20
2015,07,02,13,40,27.20
2015,07,02,13,41,27.20
2015,07,02,13,42,27.20
2015,07,02,13,43,27.20
2015,07,02,13,44,27.20
2015,07,02,13,45,27.20
2015,07,02,13,46,27.20
2015,07,02,13,47,27.20
2015,07,02,13,48,27.20
2015,07,02,13,49,27.30
2015,07,02,13,50,27.30
2015,07,02,13,51,27.20
2015,07,02,13,52,27.20
2015,07,02,13,53,27.20
2015,07,02,13,54,27.20
2015,07,02,13,55,27.30
2015,07,02,13,56,27.30
2015,07,02,13,57,27.50
2015,07,02,13,58,27.60
2015,07,02,13,59,27.70
2015,07,02,14,00,27.90
2015,07,02,14,01,28.00
2015,07,02,14,02,28.20
2015,07,02,14,03,28.30
2015,07,02,14,04,28.50
2015,07,02,14,05,28.50
2015,07,02,14,06,28.40
2015,07,02,14,07,28.30
2015,07,02,14,08,28.30
2015,07,02,14,09,28.30
2015,07,02,14,10,28.30
2015,07,02,14,11,28.30
2015,07,02,14,12,28.30
2015,07,02,14,13,28.30
2015,07,02,14,14,28.30
2015,07,02,14,15,28.30
2015,07,02,14,16,28.30
2015,07,02,14,17,28.20
2015,07,02,14,18,28.20
2015,07,02,14,19,28.20
2015,07,02,14,20,28.10
2015,07,02,14,21,28.10
2015,07,02,14,22,28.10
2015,07,02,14,23,28.10
2015,07,02,14,24,28.10
2015,07,02,14,25,28.10
2015,07,02,14,26,28.10
2015,07,02,14,27,28.10
2015,07,02,14,28,28.20
2015,07,02,14,29,28.20
2015,07,02,14,30,28.30
2015,07,02,14,31,28.30
2015,07,02,14,32,28.40
2015,07,02,14,33,28.40
2015,07,02,14,34,28.40
2015,07,02,14,35,28.40
2015,07,02,14,36,28.50
2015,07,02,14,37,28.60
2015,07,02,14,38,28.60
2015,07,02,14,39,28.70
2015,07,02,14,40,28.60
2015,07,02,14,41,28.60
2015,07,02,14,42,28.50
2015,07,02,14,43,28.40
2015,07,02,14,44,28.20
2015,07,02,14,45,28.10
2015,07,02,14,46,28.10
2015,07,02,14,47,28.10
2015,07,02,14,48,28.00
2015,07,02,14,49,27.90
2015,07,02,14,50,27.90
2015,07,02,14,51,27.80
2015,07,02,14,52,27.80
2015,07,02,14,53,27.80
2015,07,02,14,54,27.80
2015,07,02,14,55,27.80
2015,07,02,14,56,27.80
2015,07,02,14,57,27.90
2015,07,02,14,58,27.90
2015,07,02,14,59,28.00
2015,07,02,15,00,28.00
2015,07,02,15,01,28.00
2015,07,02,15,02,28.10
2015,07,02,15,03,28.10
2015,07,02,15,04,28.10
2015,07,02,15,05,28.00
2015,07,02,15,06,28.00
2015,07,02,15,07,28.00
2015,07,02,15,08,28.00
2015,07,02,15,09,28.00
2015,07,02,15,10,28.00
2015,07,02,15,11,28.10
2015,07,02,15,12,28.10
2015,07,02,15,13,28.20
2015,07,02,15,14,28.30
2015,07,02,15,15,28.30
2015,07,02,15,16,28.40
2015,07,02,15,17,28.50
2015,07,02,15,18,28.60
2015,07,02,15,19,28.70
2015,07,02,15,20,28.70
2015,07,02,15,21,28.80
2015,07,02,15,22,28.90
2015,07,02,15,23,29.10
2015,07,02,15,24,29.20
2015,07,02,15,25,29.30
2015,07,02,15,26,29.40
2015,07,02,15,27,29.50
2015,07,02,15,28,29.60
2015,07,02,15,29,29.60
2015,07,02,15,30,29.70
2015,07,02,15,31,29.70
2015,07,02,15,32,29.70
2015,07,02,15,33,29.70
2015,07,02,15,34,29.80
2015,07,02,15,35,29.80
2015,07,02,15,36,29.70
2015,07,02,15,37,29.60
2015,07,02,15,38,29.50
2015,07,02,15,39,29.40
2015,07,02,15,40,29.20
2015,07,02,15,41,29.10
2015,07,02,15,42,29.10
2015,07,02,15,43,29.10
2015,07,02,15,44,29.20
2015,07,02,15,45,29.20
2015,07,02,15,46,29.30
2015,07,02,15,47,29.30
2015,07,02,15,48,29.30
2015,07,02,15,49,29.30
2015,07,02,15,50,29.30
2015,07,02,15,51,29.40
2015,07,02,15,52,29.40
2015,07,02,15,53,29.40
2015,07,02,15,54,29.40
2015,07,02,15,55,29.40
2015,07,02,15,56,29.50
2015,07,02,15,57,29.50
2015,07,02,15,58,29.50
2015,07,02,15,59,29.60
2015,07,02,16,00,29.60
2015,07,02,16,01,29.70
2015,07,02,16,02,29.70
2015,07,02,16,03,29.70
2015,07,02,16,04,29.70
2015,07,02,16,05,29.70
2015,07,02,16,06,29.70
2015,07,02,16,07,29.70
2015,07,02,16,08,29.70
2015,07,02,16,09,29.70
2015,07,02,16,10,29.80
2015,07,02,16,11,29.90
2015,07,02,16,12,30.10
2015,07,02,16,13,30.20
2015,07,02,16,14,30.20
2015,07,02,16,15,30.30
2015,07,02,16,16,30.40
2015,07,02,16,17,30.40
2015,07,02,16,18,30.30
2015,07,02,16,19,30.20
2015,07,02,16,20,30.20
2015,07,02,16,21,30.20
2015,07,02,16,22,30.20
2015,07,02,16,23,30.20
2015,07,02,16,24,30.20
2015,07,02,16,25,30.20
2015,07,02,16,26,30.30
2015,07,02,16,27,30.30
2015,07,02,16,28,30.30
2015,07,02,16,29,30.40
2015,07,02,16,30,30.30
2015,07,02,16,31,30.30
2015,07,02,16,32,30.30
2015,07,02,16,33,30.30
2015,07,02,16,34,30.20
2015,07,02,16,35,30.20
2015,07,02,16,36,30.10
2015,07,02,16,37,30.10
2015,07,02,16,38,30.10
2015,07,02,16,39,30.10
2015,07,02,16,40,30.10
2015,07,02,16,41,30.10
2015,07,02,16,42,30.10
2015,07,02,16,43,30.10
2015,07,02,16,44,30.10
2015,07,02,16,45,30.20
2015,07,02,16,46,30.20
2015,07,02,16,47,30.30
2015,07,02,16,48,30.30
2015,07,02,16,49,30.30
2015,07,02,16,50,30.30
2015,07,02,16,51,30.40
2015,07,02,16,52,30.40
2015,07,02,16,53,30.40
2015,07,02,16,54,30.50
2015,07,02,16,55,30.60
2015,07,02,16,56,30.60
2015,07,02,16,57,30.60
2015,07,02,16,58,30.50
2015,07,02,16,59,30.40
2015,07,02,17,00,30.40
2015,07,02,17,01,30.30
2015,07,02,17,02,30.30
2015,07,02,17,03,30.30
2015,07,02,17,04,30.30
2015,07,02,17,05,30.30
2015,07,02,17,06,30.30
2015,07,02,17,07,30.20
2015,07,02,17,08,30.20
2015,07,02,17,09,30.10
2015,07,02,17,10,30.10
2015,07,02,17,11,30.10
2015,07,02,17,12,30.10
2015,07,02,17,13,30.10
2015,07,02,17,14,30.10
2015,07,02,17,15,30.10
2015,07,02,17,16,30.20
2015,07,02,17,17,30.20
2015,07,02,17,18,30.20
2015,07,02,17,19,30.30